[[{"header":{"parameterUnit":"m.s-1","parameterCategory":2,"la1":30.2992,"la2":30.254,"lo1":-89.0895,"lo2":-89.0443,"dy":0.0025,"dx":0.0025,"nx":19,"ny":19,"refTime":"2026-05-13T09:00:00:Z","depth":"0","parameterNumber":2,"parameterNumberName":"U-component_of_CURRENTS"},"data":[0,0,0,-0.0993,-0.0996,-0.1074,-0.1074,-0.1042,-0.1042,0,0,0,0,0,0,0,0,0,0,0,-0.0957,-0.0958,-0.0993,-0.0996,-0.1074,-0.1074,-0.1042,-0.1042,0,0,0,0,0,0,0,0,0,0,0,-0.0956,-0.0958,-0.0959,-0.0996,-0.1074,-0.1074,-0.1042,-0.1011,0,0,0,0,0,0,0,0,0,0,-0.0949,-0.0913,-0.0957,-0.0959,-0.0997,-0.1074,-0.1074,-0.101,-0.1012,-0.0977,0,-0.1005,0,-0.1035,-0.1039,-0.1039,0,0,0,-0.0973,-0.0911,-0.0968,-0.0959,-0.0998,-0.1074,-0.1032,-0.1012,-0.1015,-0.0979,-0.1005,-0.1005,-0.1034,-0.1039,-0.1038,-0.099,-0.099,0,0,-0.0968,-0.0929,-0.0967,-0.0971,-0.1037,-0.103,-0.1035,-0.1015,-0.1,-0.1005,-0.1005,-0.1033,-0.1038,-0.1038,-0.099,-0.099,0,0,0,-0.0971,-0.0926,-0.0985,-0.097,-0.1002,-0.1033,-0.1038,-0.1,-0.1032,-0.1005,-0.1033,-0.1038,-0.1037,-0.099,-0.099,-0.0977,0,0,0,-0.0968,-0.0931,-0.0983,-0.0954,-0.1004,-0.1014,-0.1023,-0.1032,-0.1032,-0.1033,-0.1038,-0.1037,-0.0991,-0.099,-0.0978,-0.097,0,0,0,-0.095,-0.0927,-0.0952,-0.0953,-0.1004,-0.1016,-0.1044,-0.1033,-0.1049,-0.1039,-0.1037,-0.0991,-0.099,-0.0978,-0.0971,-0.0972,0,0,0,-0.0886,-0.0919,-0.095,-0.0968,-0.1004,-0.1035,-0.1044,-0.1042,-0.1031,-0.1038,-0.0991,-0.099,-0.0979,-0.0972,-0.0972,-0.0968,-0.0965,0,0,-0.0897,-0.0918,-0.0928,-0.0959,-0.0987,-0.1021,-0.1014,-0.1008,-0.1011,-0.0984,-0.0984,-0.0977,-0.0971,-0.0972,-0.0941,-0.0939,0,0,0,-0.091,-0.0923,-0.0932,-0.0952,-0.0982,-0.0989,-0.1001,-0.1003,-0.099,-0.1011,-0.0972,-0.0968,-0.0969,-0.0968,-0.0965,-0.1051,-0.0988,-0.0988,-0.0988,-0.0892,-0.0907,-0.0906,-0.093,-0.0937,-0.0959,-0.096,-0.0963,-0.0966,-0.096,-0.0953,-0.0938,-0.0935,-0.0934,-0.1022,-0.0949,-0.0949,-0.0949,-0.0949,-0.0895,-0.0882,-0.0883,-0.0892,-0.0899,-0.0896,-0.0911,-0.0924,-0.0927,-0.0933,-0.0935,-0.0948,-0.0931,-0.1026,-0.0948,-0.0948,-0.0948,-0.0948,-0.0948,-0.0867,-0.0857,-0.0869,-0.0862,-0.0852,-0.0862,-0.0869,-0.0888,-0.0905,-0.091,-0.0919,-0.0919,-0.1007,-0.0915,-0.0915,-0.0915,-0.0915,-0.0915,-0.0915,-0.0824,-0.0836,-0.0829,-0.0828,-0.0814,-0.0816,-0.0846,-0.0865,-0.0889,-0.0901,-0.0901,-0.101,-0.0928,-0.0934,-0.0914,-0.0914,-0.0915,-0.0915,-0.0915,-0.0773,-0.0801,-0.0786,-0.0779,-0.076,-0.0749,-0.0801,-0.0848,-0.0876,-0.0885,-0.0998,-0.09,-0.0906,-0.0907,-0.0914,-0.0889,-0.0889,-0.0889,-0.0889,-0.0739,-0.0751,-0.0737,-0.072,-0.0707,-0.0712,-0.0729,-0.0788,-0.0918,-0.0986,-0.1037,-0.1056,-0.1054,-0.107,-0.1068,-0.1078,-0.1097,-0.1097,-0.1098,-0.0703,-0.071,-0.0684,-0.0688,-0.067,-0.0673,-0.0655,-0.0754,-0.0999,-0.1116,-0.1159,-0.115,-0.119,-0.1178,-0.1212,-0.1202,-0.1221,0,0]},{"header":{"parameterUnit":"m.s-1","parameterCategory":2,"la1":30.2992,"la2":30.254,"lo1":-89.0895,"lo2":-89.0443,"dy":0.0025,"dx":0.0025,"nx":19,"ny":19,"refTime":"2026-05-13T09:00:00:Z","depth":"0","parameterNumber":3,"parameterNumberName":"V-component_of_CURRENTS"},"data":[0,0,0,-0.0485,-0.048,-0.0313,-0.0312,-0.0254,-0.0254,0,0,0,0,0,0,0,0,0,0,0,-0.0564,-0.0563,-0.0485,-0.048,-0.0313,-0.0312,-0.0254,-0.0254,0,0,0,0,0,0,0,0,0,0,0,-0.0565,-0.0563,-0.0561,-0.0479,-0.0313,-0.0312,-0.0254,-0.0347,0,0,0,0,0,0,0,0,0,0,-0.0493,-0.0591,-0.0563,-0.0561,-0.0478,-0.0313,-0.0312,-0.035,-0.0342,-0.0367,0,-0.0332,0,-0.0274,-0.0251,-0.0251,0,0,0,-0.0503,-0.0598,-0.0489,-0.0561,-0.0476,-0.0313,-0.0395,-0.0345,-0.0335,-0.0357,-0.0331,-0.0327,-0.0274,-0.0251,-0.0251,-0.022,-0.0219,0,0,-0.0512,-0.06,-0.0495,-0.0482,-0.0423,-0.04,-0.0389,-0.0337,-0.0366,-0.033,-0.0324,-0.0273,-0.0251,-0.0251,-0.022,-0.022,0,0,0,-0.0523,-0.0608,-0.0498,-0.0487,-0.0433,-0.0394,-0.0382,-0.0369,-0.0313,-0.0323,-0.0272,-0.0251,-0.025,-0.022,-0.022,-0.0225,0,0,0,-0.053,-0.0609,-0.0502,-0.0562,-0.0433,-0.0391,-0.0417,-0.0318,-0.0308,-0.0272,-0.0251,-0.025,-0.022,-0.022,-0.0225,-0.0234,0,0,0,-0.0573,-0.0616,-0.0578,-0.0565,-0.0471,-0.0388,-0.0333,-0.0314,-0.0277,-0.0251,-0.025,-0.022,-0.022,-0.0225,-0.0233,-0.0235,0,0,0,-0.0693,-0.0646,-0.0582,-0.0519,-0.0472,-0.0343,-0.0332,-0.0272,-0.0249,-0.0251,-0.022,-0.022,-0.0225,-0.0233,-0.0235,-0.033,-0.0339,0,0,-0.0686,-0.065,-0.06,-0.0534,-0.0398,-0.0369,-0.0305,-0.0272,-0.026,-0.0252,-0.025,-0.0225,-0.0233,-0.0235,-0.032,-0.0329,0,0,0,-0.0629,-0.059,-0.0541,-0.045,-0.0348,-0.0306,-0.0259,-0.0252,-0.0233,-0.0237,-0.022,-0.0225,-0.0226,-0.0283,-0.029,-0.021,-0.0219,-0.0219,-0.0219,-0.0714,-0.0604,-0.0528,-0.0397,-0.0342,-0.0268,-0.025,-0.0238,-0.0226,-0.0222,-0.0226,-0.0226,-0.0287,-0.0293,-0.0208,-0.0218,-0.0218,-0.0218,-0.0218,-0.0658,-0.0604,-0.0511,-0.0398,-0.0338,-0.0296,-0.0251,-0.0242,-0.023,-0.0225,-0.0225,-0.0281,-0.0301,-0.0208,-0.0218,-0.0218,-0.0218,-0.0218,-0.0218,-0.0698,-0.0666,-0.0578,-0.0439,-0.0382,-0.0315,-0.0294,-0.0265,-0.0243,-0.0239,-0.03,-0.0301,-0.0223,-0.0237,-0.0237,-0.0237,-0.0237,-0.0237,-0.0237,-0.0785,-0.0694,-0.0601,-0.0481,-0.0426,-0.0374,-0.0319,-0.0311,-0.0317,-0.0318,-0.0319,-0.0219,-0.0232,-0.0236,-0.0238,-0.0238,-0.0238,-0.0238,-0.0238,-0.081,-0.0762,-0.0616,-0.0542,-0.0422,-0.0422,-0.0388,-0.0421,-0.0407,-0.0434,-0.0319,-0.0361,-0.0369,-0.0365,-0.0372,-0.041,-0.0409,-0.041,-0.041,-0.0847,-0.0806,-0.0592,-0.0476,-0.0428,-0.0428,-0.0523,-0.0591,-0.0513,-0.0464,-0.034,-0.0342,-0.0339,-0.0343,-0.034,-0.0345,-0.0374,-0.0374,-0.0373,-0.0832,-0.0748,-0.0612,-0.0461,-0.0409,-0.0458,-0.0601,-0.0774,-0.062,-0.0357,-0.0202,-0.0204,-0.0188,-0.019,-0.0183,-0.0185,-0.0188,0,0]}],[{"header":{"parameterUnit":"m.s-1","parameterCategory":2,"la1":30.2992,"la2":30.254,"lo1":-89.0895,"lo2":-89.0443,"dy":0.0025,"dx":0.0025,"nx":19,"ny":19,"refTime":"2026-05-13T09:00:00:Z","depth":"2","parameterNumber":2,"parameterNumberName":"U-component_of_CURRENTS"},"data":[0,0,0,-0.1252,-0.125,-0.1188,-0.1188,-0.1145,-0.1144,0,0,0,0,0,0,0,0,0,0,0,-0.1264,-0.1263,-0.1252,-0.125,-0.1188,-0.1188,-0.1145,-0.1144,0,0,0,0,0,0,0,0,0,0,0,-0.1264,-0.1263,-0.1262,-0.125,-0.1188,-0.1188,-0.1145,-0.1185,0,0,0,0,0,0,0,0,0,0,-0.1241,-0.1298,-0.1263,-0.1262,-0.1249,-0.1188,-0.1188,-0.1186,-0.1182,-0.1181,0,-0.1154,0,-0.1149,-0.1142,-0.1141,0,0,0,-0.1258,-0.1302,-0.123,-0.1262,-0.1249,-0.1189,-0.1218,-0.1184,-0.1179,-0.1175,-0.1153,-0.1152,-0.1148,-0.1141,-0.1141,-0.1093,-0.1092,0,0,-0.1261,-0.131,-0.1233,-0.1227,-0.1211,-0.122,-0.1216,-0.1181,-0.1201,-0.1153,-0.1151,-0.1147,-0.1141,-0.1141,-0.1093,-0.1093,0,0,0,-0.1266,-0.1314,-0.1243,-0.1228,-0.1214,-0.1218,-0.1214,-0.1203,-0.1162,-0.115,-0.1147,-0.1141,-0.114,-0.1093,-0.1093,-0.108,0,0,0,-0.1268,-0.1314,-0.1244,-0.1282,-0.1214,-0.1218,-0.1238,-0.1165,-0.1161,-0.1147,-0.1141,-0.114,-0.1093,-0.1093,-0.1081,-0.1073,0,0,0,-0.1271,-0.1317,-0.1289,-0.1283,-0.1247,-0.1217,-0.1178,-0.1164,-0.1159,-0.1141,-0.114,-0.1094,-0.1093,-0.1081,-0.1074,-0.1076,0,0,0,-0.135,-0.1298,-0.1291,-0.1254,-0.1247,-0.1172,-0.1178,-0.1149,-0.1131,-0.1141,-0.1093,-0.1093,-0.1082,-0.1075,-0.1077,-0.1182,-0.1187,0,0,-0.1315,-0.1297,-0.127,-0.126,-0.1169,-0.1183,-0.1145,-0.1127,-0.1126,-0.111,-0.1108,-0.108,-0.1074,-0.1076,-0.1152,-0.1159,0,0,0,-0.1279,-0.1245,-0.1221,-0.1181,-0.1134,-0.1115,-0.1106,-0.1107,-0.109,-0.1111,-0.1073,-0.107,-0.1072,-0.1136,-0.1141,-0.109,-0.109,-0.109,-0.1091,-0.1238,-0.121,-0.1159,-0.111,-0.1086,-0.107,-0.1064,-0.1065,-0.1067,-0.106,-0.1054,-0.1039,-0.1107,-0.1112,-0.105,-0.105,-0.105,-0.1049,-0.1049,-0.1152,-0.1133,-0.1111,-0.1047,-0.1031,-0.1009,-0.1016,-0.1027,-0.1029,-0.1034,-0.1037,-0.1113,-0.1117,-0.1048,-0.1048,-0.1049,-0.1049,-0.1049,-0.1049,-0.1154,-0.1141,-0.1093,-0.1014,-0.098,-0.0973,-0.0975,-0.0991,-0.1009,-0.1013,-0.1094,-0.1096,-0.1039,-0.1018,-0.1018,-0.1018,-0.1018,-0.1018,-0.1018,-0.1174,-0.1124,-0.105,-0.0983,-0.0942,-0.0928,-0.0951,-0.0974,-0.1043,-0.1087,-0.1088,-0.1029,-0.103,-0.1038,-0.1017,-0.1017,-0.1017,-0.1017,-0.1017,-0.1157,-0.1125,-0.1019,-0.0958,-0.0874,-0.0883,-0.0934,-0.1054,-0.1083,-0.1141,-0.1137,-0.1134,-0.1151,-0.1149,-0.116,-0.1172,-0.1172,-0.1172,-0.1172,-0.1139,-0.1121,-0.0952,-0.0859,-0.0817,-0.0851,-0.0992,-0.1111,-0.1173,-0.1138,-0.1139,-0.1158,-0.1155,-0.1171,-0.1168,-0.1179,-0.1195,-0.1195,-0.1195,-0.1069,-0.1036,-0.0917,-0.083,-0.0776,-0.0839,-0.1024,-0.1183,-0.1106,-0.1184,-0.1024,-0.1197,-0.1231,-0.1223,-0.1253,-0.1246,-0.1265,0,0]},{"header":{"parameterUnit":"m.s-1","parameterCategory":2,"la1":30.2992,"la2":30.254,"lo1":-89.0895,"lo2":-89.0443,"dy":0.0025,"dx":0.0025,"nx":19,"ny":19,"refTime":"2026-05-13T09:00:00:Z","depth":"2","parameterNumber":3,"parameterNumberName":"V-component_of_CURRENTS"},"data":[0,0,0,-0.0195,-0.0196,-0.0183,-0.0183,-0.0124,-0.0123,0,0,0,0,0,0,0,0,0,0,0,-0.0233,-0.0234,-0.0195,-0.0196,-0.0183,-0.0183,-0.0124,-0.0123,0,0,0,0,0,0,0,0,0,0,0,-0.0232,-0.0234,-0.0235,-0.0196,-0.0183,-0.0183,-0.0124,-0.014,0,0,0,0,0,0,0,0,0,0,-0.0155,-0.0126,-0.0233,-0.0235,-0.0196,-0.0183,-0.0183,-0.0141,-0.0139,-0.0123,0,-0.0165,0,-0.0137,-0.012,-0.012,0,0,0,-0.0177,-0.0128,-0.0201,-0.0235,-0.0196,-0.0183,-0.0183,-0.014,-0.0137,-0.0121,-0.0164,-0.016,-0.0136,-0.012,-0.012,-0.0091,-0.0091,0,0,-0.0178,-0.0143,-0.0203,-0.0201,-0.0248,-0.0184,-0.0183,-0.0138,-0.0113,-0.0163,-0.0159,-0.0135,-0.0119,-0.0119,-0.0091,-0.0091,0,0,0,-0.0192,-0.0143,-0.0215,-0.0204,-0.0202,-0.0184,-0.0183,-0.0114,-0.0163,-0.0158,-0.0134,-0.0119,-0.0119,-0.0091,-0.0091,-0.01,0,0,0,-0.0192,-0.0155,-0.0217,-0.0183,-0.0205,-0.0142,-0.0159,-0.0166,-0.0159,-0.0134,-0.0119,-0.0118,-0.0091,-0.0091,-0.01,-0.0109,0,0,0,-0.0223,-0.0152,-0.0189,-0.0184,-0.0192,-0.0144,-0.0184,-0.0164,-0.0145,-0.012,-0.0118,-0.0091,-0.0091,-0.0099,-0.0108,-0.0109,0,0,0,-0.0137,-0.0199,-0.0188,-0.02,-0.0193,-0.0198,-0.0184,-0.0145,-0.0124,-0.0119,-0.0091,-0.0091,-0.0099,-0.0107,-0.0109,-0.0055,-0.0052,0,0,-0.0178,-0.02,-0.0206,-0.0198,-0.0212,-0.0195,-0.016,-0.0131,-0.0121,-0.0099,-0.0098,-0.01,-0.0108,-0.0109,-0.0061,-0.0058,0,0,0,-0.0191,-0.0221,-0.0214,-0.0205,-0.0199,-0.0178,-0.0142,-0.0134,-0.0115,-0.0114,-0.0099,-0.0104,-0.0105,-0.0071,-0.0069,-0.0091,-0.0091,-0.0091,-0.0091,-0.0265,-0.0238,-0.0231,-0.0218,-0.0199,-0.0156,-0.0142,-0.0129,-0.0114,-0.0112,-0.0111,-0.0118,-0.0082,-0.008,-0.0107,-0.0107,-0.0108,-0.0108,-0.0108,-0.0327,-0.0295,-0.0249,-0.0244,-0.0208,-0.0182,-0.0147,-0.0138,-0.0126,-0.0118,-0.0118,-0.0082,-0.0078,-0.0108,-0.0108,-0.0108,-0.0108,-0.0108,-0.0108,-0.0333,-0.0306,-0.0313,-0.0281,-0.0246,-0.0201,-0.0188,-0.0163,-0.0141,-0.0138,-0.0096,-0.0095,-0.0124,-0.0136,-0.0136,-0.0136,-0.0136,-0.0136,-0.0136,-0.0318,-0.032,-0.0325,-0.0304,-0.0284,-0.0254,-0.0212,-0.0203,-0.0149,-0.0104,-0.0104,-0.0128,-0.0127,-0.0126,-0.0137,-0.0136,-0.0136,-0.0136,-0.0136,-0.0284,-0.0315,-0.0319,-0.0321,-0.0291,-0.0286,-0.0254,-0.0204,-0.0178,-0.0146,-0.008,-0.0081,-0.0073,-0.0073,-0.0071,-0.0067,-0.0067,-0.0067,-0.0067,-0.027,-0.028,-0.0298,-0.0303,-0.03,-0.0288,-0.0251,-0.0074,0.0024,0.0136,0.0128,0.0161,0.0152,0.0175,0.0169,0.0177,0.0245,0.0246,0.0247,-0.0262,-0.0266,-0.027,-0.0284,-0.0288,-0.0302,-0.0225,0.0075,0.03,0.0263,0.0226,-0.0055,-0.003,-0.0034,-0.0018,-0.0021,-0.0016,0,0]}],[{"header":{"parameterUnit":"m.s-1","parameterCategory":2,"la1":30.2992,"la2":30.254,"lo1":-89.0895,"lo2":-89.0443,"dy":0.0025,"dx":0.0025,"nx":19,"ny":19,"refTime":"2026-05-13T09:00:00:Z","depth":"4","parameterNumber":2,"parameterNumberName":"U-component_of_CURRENTS"},"data":[0,0,0,-0.095,-0.0951,-0.1088,-0.109,-0.134,-0.1342,0,0,0,0,0,0,0,0,0,0,0,-0.0954,-0.0955,-0.095,-0.0951,-0.1088,-0.109,-0.134,-0.1342,0,0,0,0,0,0,0,0,0,0,0,-0.0953,-0.0954,-0.0956,-0.0951,-0.1088,-0.109,-0.134,-0.1231,0,0,0,0,0,0,0,0,0,0,-0.1093,-0.1014,-0.0954,-0.0956,-0.0951,-0.1088,-0.109,-0.1225,-0.1237,-0.1282,0,-0.1307,0,-0.1285,-0.1356,-0.1356,0,0,0,-0.1006,-0.1003,-0.1074,-0.0956,-0.0952,-0.1087,-0.1042,-0.1232,-0.1246,-0.1299,-0.131,-0.1317,-0.1289,-0.1357,-0.1358,-0.162,-0.1622,0,0,-0.0999,-0.0949,-0.1064,-0.1083,-0.0993,-0.1037,-0.1045,-0.124,-0.1238,-0.131,-0.1322,-0.1293,-0.1358,-0.136,-0.1619,-0.1621,0,0,0,-0.0939,-0.0943,-0.1009,-0.1074,-0.1068,-0.104,-0.105,-0.123,-0.1262,-0.1324,-0.1296,-0.1359,-0.1362,-0.1617,-0.162,-0.1707,0,0,0,-0.0938,-0.0905,-0.1006,-0.0973,-0.1064,-0.1122,-0.1035,-0.1251,-0.1269,-0.1295,-0.136,-0.1364,-0.1616,-0.1619,-0.1701,-0.1715,0,0,0,-0.0946,-0.0903,-0.093,-0.0971,-0.1003,-0.1119,-0.1162,-0.1255,-0.125,-0.1357,-0.1364,-0.1615,-0.1618,-0.1696,-0.1708,-0.1614,0,0,0,-0.0879,-0.0919,-0.0929,-0.0958,-0.1002,-0.11,-0.1161,-0.1282,-0.1381,-0.1361,-0.1616,-0.1619,-0.1695,-0.1703,-0.1612,-0.128,0,0,0,-0.0899,-0.092,-0.0941,-0.0952,-0.1009,-0.1084,-0.1185,-0.1364,-0.1445,-0.1563,-0.1569,-0.1703,-0.1707,-0.1614,-0.1478,0,0,0,0,-0.0926,-0.0942,-0.0967,-0.0988,-0.1061,-0.1198,-0.1305,-0.1381,-0.1604,-0.1503,-0.1746,-0.1746,-0.1682,-0.1487,-0.1635,-0.1635,-0.1635,-0.1634,-0.1634,-0.0905,-0.0936,-0.0977,-0.1052,-0.1141,-0.1282,-0.1442,-0.1584,-0.1622,-0.1762,-0.1849,-0.1885,-0.1694,-0.1898,-0.1899,-0.1899,-0.19,-0.19,-0.19,-0.092,-0.0943,-0.1014,-0.1086,-0.1231,-0.1389,-0.1622,-0.1728,-0.1878,-0.1927,-0.186,-0.164,-0.191,-0.1908,-0.1907,-0.1906,-0.1905,-0.1904,-0.1904,-0.0884,-0.0908,-0.096,-0.1071,-0.1306,-0.153,-0.1674,-0.189,-0.1975,-0.2021,-0.169,-0.1897,-0.1842,-0.1945,-0.1945,-0.1944,-0.1944,-0.1944,-0.1944,-0.0836,-0.0884,-0.0912,-0.1091,-0.1214,-0.1438,-0.17,-0.1691,-0.1791,-0.1732,-0.1998,-0.1896,-0.1895,-0.1843,-0.194,-0.194,-0.1941,-0.1941,-0.1942,-0.0787,-0.0806,-0.0828,-0.0879,-0.1046,-0.1195,-0.1389,-0.1368,-0.1264,-0.1196,-0.1533,-0.1554,-0.1452,-0.146,-0.1388,-0.1353,-0.1349,-0.1345,0,-0.0737,-0.0754,-0.0749,-0.0762,-0.0767,-0.1017,-0.0806,-0.0823,-0.1036,-0.1111,-0.1235,-0.1623,-0.1637,-0.1526,-0.1526,-0.1443,0,0,0,-0.0693,-0.0709,-0.0685,-0.0702,-0.0708,-0.0697,-0.0775,-0.0775,-0.1064,-0.0842,-0.1243,-0.127,-0.1395,-0.1927,-0.1819,-0.1817,-0.1724,0,0]},{"header":{"parameterUnit":"m.s-1","parameterCategory":2,"la1":30.2992,"la2":30.254,"lo1":-89.0895,"lo2":-89.0443,"dy":0.0025,"dx":0.0025,"nx":19,"ny":19,"refTime":"2026-05-13T09:00:00:Z","depth":"4","parameterNumber":3,"parameterNumberName":"V-component_of_CURRENTS"},"data":[0,0,0,0.0002,0.0002,-0.0004,-0.0004,-0.0014,-0.0014,0,0,0,0,0,0,0,0,0,0,0,0.0018,0.0018,0.0002,0.0002,-0.0004,-0.0004,-0.0014,-0.0014,0,0,0,0,0,0,0,0,0,0,0,0.0018,0.0018,0.0017,0.0002,-0.0004,-0.0004,-0.0014,-0.0005,0,0,0,0,0,0,0,0,0,0,0.0002,-0.001,0.0018,0.0017,0.0002,-0.0004,-0.0004,-0.0005,-0.0006,-0.0016,0,-0.0016,0,-0.0028,-0.0016,-0.0016,0,0,0,0.0015,-0.0009,0.0006,0.0017,0.0001,-0.0004,0.0002,-0.0005,-0.0006,-0.0017,-0.0016,-0.0017,-0.0028,-0.0016,-0.0016,0.0016,0.0017,0,0,0.0016,0.0,0.0007,0.0005,-0.0,0.0002,0.0002,-0.0006,-0.0017,-0.0016,-0.0018,-0.0028,-0.0016,-0.0016,0.0016,0.0016,0,0,0,0.0007,0.0,0.0015,0.0006,-0.0002,0.0002,0.0001,-0.0017,-0.0007,-0.0018,-0.0028,-0.0016,-0.0017,0.0015,0.0016,0.0058,0,0,0,0.0008,-0.0005,0.0015,0.0004,-0.0002,-0.0016,-0.001,-0.0006,-0.0008,-0.0028,-0.0016,-0.0017,0.0014,0.0016,0.0055,0.005,0,0,0,0.0018,-0.0005,-0.0001,0.0004,-0.0005,-0.0016,-0.0007,-0.0006,-0.0015,-0.0016,-0.0017,0.0014,0.0015,0.0053,0.0047,0.0013,0,0,0,-0.0002,-0.0012,-0.0002,-0.0032,-0.0005,-0.0037,-0.0007,-0.0021,-0.0024,-0.0016,0.0014,0.0016,0.0053,0.0046,0.0012,-0.0049,0,0,0,-0.0023,-0.0015,-0.0035,-0.0026,-0.0073,-0.0035,-0.0085,-0.0062,-0.0,0.0017,0.0018,0.0056,0.0047,0.0013,0.0033,0,0,0,0,-0.0049,-0.0055,-0.007,-0.0099,-0.0115,-0.0123,-0.0111,-0.0082,0.0017,0.0002,0.0072,0.0065,0.0041,0.0006,0.0022,0.0022,0.0022,0.0022,0.0022,-0.0063,-0.0088,-0.0135,-0.0158,-0.0184,-0.0186,-0.015,-0.009,-0.0036,0.0045,0.0112,0.013,0.01,0.0139,0.0139,0.0139,0.0139,0.0139,0.014,-0.01,-0.0132,-0.0177,-0.0223,-0.0243,-0.0262,-0.0184,-0.0096,0.0047,0.0111,0.0087,0.0071,0.0144,0.0143,0.0143,0.0142,0.0142,0.0141,0.0141,-0.0109,-0.0131,-0.0165,-0.0246,-0.0277,-0.0264,-0.0217,-0.0056,0.0072,0.0143,0.0097,0.0135,0.0113,0.0157,0.0157,0.0157,0.0157,0.0156,0.0156,-0.0101,-0.0143,-0.019,-0.0261,-0.0292,-0.0277,-0.0181,-0.0125,0.0012,0.0118,0.0171,0.0135,0.0134,0.0113,0.0154,0.0155,0.0155,0.0155,0.0155,-0.0106,-0.0124,-0.0188,-0.0234,-0.0323,-0.032,-0.0268,-0.0183,-0.0133,-0.0079,0.0072,0.0076,0.0037,0.0038,0.0011,0.0024,0.0023,0.0022,0,-0.0099,-0.0118,-0.0186,-0.0255,-0.0328,-0.034,-0.0311,-0.0281,-0.0139,-0.0074,-0.0137,0.0032,0.0037,-0.0012,-0.0012,-0.0046,0,0,0,-0.0104,-0.0119,-0.0155,-0.0235,-0.0322,-0.0308,-0.0297,-0.0251,-0.0126,-0.0167,0.0005,0.0009,-0.0075,0.0148,0.0096,0.0096,0.0057,0,0]}]]